User: anonymous   Login
Location: Easthampton
(42.2676°N, 72.6690°W)
Time: 18:39:36
(UTC+00:00)
Language:

AO-91 - Orbit

View from above orbital plane
View from above orbital plane
View from above satellite
View from above satellite

Ground track
Ground track

The orbit data is extracted from the following two-line orbital elements,

1 43017U 17073E   23086.68330161  .00011475  00000-0  81692-3 0  9997
2 43017  97.6414 334.2548 0236884 338.5676  20.5745 14.84852715289081
Epoch (UTC): 27 March 2023 16:23:57
Eccentricity: 0.0236884
inclination: 97.6414°
perigee height: 448 km
apogee height: 779 km
right ascension of ascending node: 334.2548°
argument of perigee: 338.5676°
revolutions per day: 14.84852715
mean anomaly at epoch: 20.5745°
orbit number at epoch: 28908

The dashed part of the orbit path shows where the satellite is in the earth's shadow,  

DLR